• Join FlightAware (Why Join?)
  • Login
  • US Flag GB Flag 
21:53 EDT


 

Airport Tracker/Info


-or-


 

Live Flight TrackerFlight Track Log ✈ DAL268 ✈ 22-May-2013 ✈ KJFK - LLBG / TLV

Flight Track Log - Related Links

Times and Time Zones

All times are in EDT time to prevent confusion due to time zone crossing. See the DAL268 flight status page for this flight to view local times or setup timezone preferences in your user account.

Time Position Orientation Groundspeed Altitude Reporting Facility
EDT Latitude Longitude Course Direction KTS MPH feet Rate Location/Type
23:56 40.6190 -73.7880 207° Southwest 166 191 600  Level FlightAware
23:56 40.6010 -73.8010 209° Southwest 172 198 1,400 1,560 Climbing FlightAware
23:57 40.5810 -73.8090 197° South 206 237 1,900 1,440 Climbing FlightAware
23:57 40.5610 -73.8000 161° South 236 272 2,500 1,320 Climbing FlightAware
23:57 40.5510 -73.7850 131° Southeast 260 299 2,700 1,380 Climbing FlightAware
23:57 40.5440 -73.7600 110° East 275 316 3,200 1,800 Climbing FlightAware
23:58 40.5440 -73.6940 90° East 296 341 4,400 1,980 Climbing FlightAware
23:58 40.5450 -73.6420 89° East 308 354 5,400 2,160 Climbing FlightAware
23:59 40.5460 -73.5880 89° East 321 369 6,400 2,640 Climbing FlightAware
23:59 40.5468 -73.5375 89° East 316 364 7,800 3,120 Climbing FlightAware ADS-B
00:00 40.5472 -73.5013 89° East 315 362 8,600 2,340 Climbing FlightAware ADS-B
00:00 40.5489 -73.4720 86° East 326 375 9,100 1,800 Climbing FlightAware ADS-B
00:00 40.5509 -73.4560 81° East 331 381 9,300 1,980 Climbing FlightAware ADS-B
00:00 40.5533 -73.4422 77° East 334 384 9,600 2,580 Climbing FlightAware ADS-B
00:01 40.5672 -73.3799 74° East 334 384 11,000 1,800 Climbing FlightAware ADS-B
00:01 40.5810 -73.3166 74° East 362 417 11,500 1,200 Climbing FlightAware ADS-B
00:02 40.5964 -73.2458 74° East 385 443 12,300 1,140 Climbing FlightAware ADS-B
00:02 40.6130 -73.1760 73° East 413 475 12,700 660 Climbing FlightAware ADS-B
00:03 40.6319 -73.0968 73° East 430 495 13,000 360 Climbing FlightAware ADS-B
00:03 40.6499 -73.0197 73° East 429 494 13,100 1,320 Climbing FlightAware ADS-B
00:04 40.6677 -72.9444 73° East 431 496 14,400 2,520 Climbing FlightAware ADS-B
00:04 40.6816 -72.8841 73° East 432 497 15,400 1,860 Climbing FlightAware ADS-B
00:05 40.6982 -72.8071 74° East 444 511 16,100 1,620 Climbing FlightAware ADS-B
00:05 40.7155 -72.7281 74° East 451 519 17,100 1,740 Climbing FlightAware ADS-B
00:06 40.7338 -72.6454 74° East 460 529 17,900 900 Climbing FlightAware ADS-B
00:06 40.7533 -72.5560 74° East 463 533 18,100 840 Climbing FlightAware ADS-B
00:07 40.7745 -72.4607 74° East 468 539 18,900 780 Climbing FlightAware ADS-B
00:07 40.7929 -72.3759 74° East 466 536 19,000 60 Climbing FlightAware ADS-B
00:08 40.8142 -72.2689 75° East 465 535 19,000 180 Level FlightAware ADS-B
00:08 40.8158 -72.2352 86° East 464 534 19,200 1,500 Climbing FlightAware ADS-B
00:09 40.8120 -72.1420 93° East 466 536 20,200 1,680 Climbing FlightAware
00:09 40.8097 -72.0873 93° East 470 541 20,700 1,080 Climbing FlightAware ADS-B
00:10 40.8000 -71.8750 93° East 479 551 22,000 1,440 Climbing FlightAware
00:11 40.8220 -71.7510 77° East 493 567 23,600 1,440 Climbing FlightAware
00:12 40.8730 -71.6090 65° Northeast 496 571 24,300 420 Climbing FlightAware
00:13 40.9050 -71.5160 65° Northeast 496 571 24,300  Level FlightAware
00:13 40.9470 -71.3990 65° Northeast 496 571 24,300 2,160 Level FlightAware
00:14 40.9880 -71.2860 64° Northeast 511 588 27,200 2,760 Climbing FlightAware
00:15 41.0570 -71.0890 65° Northeast 511 588 28,700 1,320 Climbing FlightAware
00:16 41.1080 -70.9420 65° Northeast 506 582 29,900 1,260 Climbing FlightAware
00:17 41.1520 -70.8120 66° East 504 580 30,800 780 Climbing FlightAware
00:17 41.1840 -70.7220 65° Northeast 504 580 31,000 120 Climbing FlightAware
00:18 41.2300 -70.5870 66° East 504 580 31,000  Level FlightAware
00:19 41.2680 -70.4770 65° Northeast 504 580 31,000  Level FlightAware
00:19 41.3010 -70.3820 65° Northeast 504 580 31,000  Level FlightAware
00:23 41.4940 -69.8030 66° East 31,000  Level FlightAware
00:27 41.7160 -69.1300 66° East 31,000  Level FlightAware
00:27 41.7650 -68.9760 67° East 507 583 31,000  Level FlightAware
00:28 41.7960 -68.8770 67° East 507 583 31,000  Level FlightAware
00:29 41.8270 -68.7790 67° East 507 583 31,000  Level FlightAware
00:29 41.8770 -68.6300 66° East 508 585 31,000  Level FlightAware
00:30 41.9140 -68.5120 67° East 508 585 31,000  Level FlightAware
00:31 41.9610 -68.3640 67° East 510 587 31,000  Level FlightAware
00:32 42.0010 -68.2370 67° East 512 589 31,000  Level FlightAware
00:32 42.0340 -68.1300 67° East 512 589 31,000  Level FlightAware
00:33 42.0800 -67.9860 67° East 517 595 31,000  Level FlightAware
00:34 42.1180 -67.8610 68° East 517 595 31,000  Level FlightAware
00:34 42.1550 -67.7450 67° East 515 593 31,000  Level FlightAware
00:35 42.1960 -67.6110 68° East 519 597 31,000  Level FlightAware
00:36 42.2300 -67.4970 68° East 520 598 31,000  Level FlightAware
00:36 42.2640 -67.3880 67° East 520 598 31,000  Level FlightAware
00:37 42.2960 -67.2870 67° East 520 598 31,000  Level FlightAware
00:38 42.3360 -67.1590 67° East 520 598 31,000  Level FlightAware
00:39 42.3680 -67.0580 67° East 520 598 31,000  Level FlightAware
00:39 42.4000 -66.9560 67° East 520 598 31,000  Level FlightAware
00:40 42.4320 -66.8540 67° East 520 598 31,000  Level FlightAware
00:41 42.4640 -66.7520 67° East 520 598 31,000  Level FlightAware
00:41 42.4960 -66.6490 67° East 520 598 31,000  Level FlightAware
00:42 42.5360 -66.5220 67° East 520 598 31,000  Level FlightAware
00:43 42.5680 -66.4200 67° East 520 598 31,000  Level FlightAware
00:43 42.6400 -66.1210 72° East 516 594 31,000  Level FlightAware
00:44 42.6690 -66.0180 69° East 516 594 31,000  Level FlightAware
00:45 42.6833 -65.9000 69° East 510 587 31,000  Level Moncton Center
00:46 42.7500 -65.7000 66° East 520 598 31,000  Level Moncton Center
00:51 43.0470 -64.6770 66° East 521 600 31,000  Level FlightAware
00:52 43.0760 -64.5690 70° East 522 601 31,000  Level FlightAware
00:53 43.1310 -64.3640 70° East 522 601 31,000  Level FlightAware
00:53 43.1590 -64.2670 68° East 522 601 31,000  Level FlightAware
00:54 43.1880 -64.1620 69° East 522 601 31,000  Level FlightAware
00:55 43.2250 -64.0300 69° East 522 601 31,000  Level FlightAware
00:56 43.2540 -63.9250 69° East 522 601 31,000  Level FlightAware
00:56 43.2840 -63.8200 69° East 522 601 31,000  Level FlightAware
00:57 43.3130 -63.7140 69° East 522 601 31,000  Level FlightAware
00:58 43.3420 -63.6090 69° East 522 601 31,000  Level FlightAware
00:58 43.3790 -63.4770 69° East 522 601 31,000  Level FlightAware
00:59 43.4090 -63.3720 68° East 522 601 31,000  Level FlightAware
01:00 43.4380 -63.2660 69° East 522 601 31,000  Level FlightAware
01:00 43.4670 -63.1610 69° East 522 601 31,000  Level FlightAware
01:01 43.4970 -63.0550 69° East 522 601 31,000  Level FlightAware
01:02 43.5340 -62.9230 69° East 522 601 31,000  Level FlightAware
01:02 43.5833 -62.5667 69° East 530 610 31,000  Level Gander Center
01:03 43.6167 -62.3667 77° East 530 610 31,000  Level Gander Center
01:04 43.6667 -62.1833 69° East 530 610 31,000  Level Gander Center
01:05 43.7333 -61.9667 67° East 530 610 31,000  Level Gander Center
01:06 43.7833 -61.7833 69° East 530 610 31,000  Level Gander Center
01:07 43.8167 -61.5833 77° East 530 610 31,000  Level Gander Center
01:08 43.8667 -61.4000 69° East 530 610 31,000  Level Gander Center
01:09 43.9167 -61.2167 69° East 530 610 31,000  Level Gander Center
01:10 43.9667 -61.0333 69° East 530 610 31,000  Level Gander Center
01:15 44.1970 -60.0380 69° East 537 618 31,000  Level FlightAware
01:16 44.2310 -59.8860 73° East 538 619 31,000  Level FlightAware
01:17 44.2580 -59.7630 73° East 539 620 31,000  Level FlightAware
01:18 44.2880 -59.6270 73° East 540 621 31,000  Level FlightAware
01:18 44.3210 -59.4770 73° East 540 621 31,000  Level FlightAware
01:19 44.3490 -59.3470 73° East 540 621 31,000  Level FlightAware
01:20 44.3820 -59.1930 73° East 542 624 31,000  Level FlightAware
01:20 44.4110 -59.0590 73° East 542 624 31,000  Level FlightAware
01:21 44.4430 -58.9040 74° East 542 624 31,000  Level FlightAware
01:22 44.4710 -58.7730 73° East 542 624 31,000  Level FlightAware
01:22 44.4990 -58.6380 74° East 541 623 31,000  Level FlightAware
01:23 44.5310 -58.4840 74° East 540 621 31,000  Level FlightAware
01:24 44.5610 -58.3390 74° East 539 620 31,000  Level FlightAware
01:25 44.5870 -58.2120 74° East 540 621 31,000  Level FlightAware
01:25 44.6170 -58.0640 74° East 540 621 31,000  Level FlightAware
01:26 44.6470 -57.9150 74° East 541 623 31,000  Level FlightAware
01:27 44.6710 -57.7970 74° East 541 623 31,000 360 Level FlightAware
01:27 44.7020 -57.6410 74° East 541 623 31,500 720 Climbing FlightAware
01:28 44.7370 -57.4680 74° East 540 621 32,200 900 Climbing FlightAware
01:29 44.7690 -57.3050 74° East 535 616 33,000 540 Climbing FlightAware
01:30 44.7920 -57.1880 74° East 535 616 33,000  Level FlightAware
01:30 44.8230 -57.0230 75° East 533 613 33,000  Level FlightAware
01:31 44.8490 -56.8890 75° East 533 613 33,000  Level FlightAware
01:32 44.8790 -56.7320 75° East 532 612 33,000  Level FlightAware
01:33 44.9050 -56.6020 74° East 530 610 33,000  Level FlightAware
01:33 44.9290 -56.4830 74° East 531 611 33,000  Level FlightAware
01:34 44.9520 -56.3690 74° East 531 611 33,000  Level FlightAware
01:35 44.9750 -56.2560 74° East 531 611 33,000  Level FlightAware
01:35 45.0040 -56.1140 74° East 531 611 33,000  Level FlightAware
01:36 45.0270 -56.0000 74° East 531 611 33,000  Level FlightAware
01:37 45.0500 -55.8870 74° East 531 611 33,000  Level FlightAware
01:37 45.0730 -55.7730 74° East 531 611 33,000  Level FlightAware
01:38 45.0960 -55.6590 74° East 531 611 33,000  Level FlightAware
01:39 45.1250 -55.5170 74° East 531 611 33,000  Level FlightAware
01:40 45.1480 -55.4030 74° East 531 611 33,000  Level FlightAware
01:40 45.1710 -55.2890 74° East 531 611 33,000  Level FlightAware
01:41 45.1940 -55.1750 74° East 531 611 33,000  Level FlightAware
01:42 45.2170 -55.0620 74° East 531 611 33,000  Level FlightAware
01:42 45.2460 -54.9190 74° East 531 611 33,000  Level FlightAware
01:43 45.3030 -54.4800 79° East 536 617 33,000  Level FlightAware
01:44 45.3280 -54.3440 75° East 536 617 33,000  Level FlightAware
01:44 45.3510 -54.2100 76° East 537 618 33,000  Level FlightAware
01:45 45.3760 -54.0700 76° East 537 618 33,000  Level FlightAware
01:46 45.3960 -53.9540 76° East 537 618 33,000  Level FlightAware
01:46 45.4170 -53.8370 76° East 537 618 33,000  Level FlightAware
01:47 45.4420 -53.6910 76° East 537 618 33,000  Level FlightAware
01:48 45.4630 -53.5740 76° East 537 618 33,000  Level FlightAware
01:49 45.4830 -53.4570 76° East 537 618 33,000  Level FlightAware
01:49 45.5030 -53.3400 76° East 537 618 33,000  Level FlightAware
01:50 45.5240 -53.2230 76° East 537 618 33,000  Level FlightAware
01:51 45.5490 -53.0770 76° East 537 618 33,000  Level FlightAware
01:51 45.5700 -52.9600 76° East 537 618 33,000  Level FlightAware
01:52 45.5900 -52.8430 76° East 537 618 33,000  Level FlightAware
01:53 45.6110 -52.7260 76° East 537 618 33,000  Level FlightAware
01:53 45.6310 -52.6090 76° East 537 618 33,000  Level FlightAware
01:54 45.6570 -52.4620 76° East 537 618 33,000  Level FlightAware
01:55 45.6833 -52.0667 76° East 530 610 33,000  Level Moncton Center
01:55 45.7000 -51.9000 82° East 530 610 33,000  Level Gander Center
01:56 45.7333 -51.7000 77° East 540 621 33,000  Level Gander Center
01:57 45.7667 -51.4833 77° East 530 610 33,000  Level Gander Center
01:58 45.7833 -51.2833 83° East 540 621 33,000  Level Gander Center
01:59 45.8333 -51.0667 72° East 540 621 33,000  Level Gander Center
02:00 45.8667 -50.8667 76° East 530 610 33,000  Level Gander Center
02:01 45.8833 -50.6500 84° East 540 621 33,000  Level Gander Center
02:02 45.9000 -50.4500 83° East 540 621 33,000  Level Gander Center
02:03 45.9333 -50.2167 78° East 530 610 33,000  Level Gander Center
02:04 45.9667 -50.0167 76° East 540 621 33,000  Level Gander Center
02:05 46.0167 -49.8167 70° East 530 610 33,000  Level Gander Center
02:06 46.0500 -49.6167 76° East 530 610 33,000  Level Gander Center
02:07 46.0000 -50.0000 70° East 543 625 33,000  Level ETMS Enhanced Traffic Management System
02:07 46.1000 -49.4333 70° East 520 598 33,000  Level Gander Center
02:08 46.1667 -49.2333 64° Northeast 550 633 33,000  Level Gander Center
02:09 46.2167 -49.0167 71° East 530 610 33,000  Level Gander Center
02:10 46.2500 -48.8167 76° East 530 610 33,000  Level Gander Center
02:11 46.3000 -48.6167 70° East 530 610 33,000  Level Gander Center
02:12 46.3500 -48.4333 68° East 540 621 33,000  Level Gander Center
02:13 46.4000 -48.2000 73° East 540 621 33,000  Level Gander Center
02:14 46.4500 -48.0167 68° East 550 633 33,000  Level Gander Center
02:15 46.5000 -47.7833 73° East 540 621 33,000  Level Gander Center
02:16 46.5500 -47.6000 68° East 540 621 33,000  Level Gander Center
02:18 46.6000 -47.3333 75° East 560 644 33,000  Level Gander Center
02:19 46.6500 -47.1333 70° East 550 633 33,000  Level Gander Center
02:20 46.7167 -46.7667 75° East 520 598 33,000  Level Gander Center
02:22 46.7714 -46.5210 72° East  Level FlightAware Approximate
02:29 47.0763 -45.0982 72° East  Level FlightAware Approximate
02:30 47.1184 -44.8936 73° East  Level FlightAware Approximate
02:31 47.1601 -44.6887 73° East  Level FlightAware Approximate
02:32 47.2015 -44.4835 73° East  Level FlightAware Approximate
02:33 47.2425 -44.2779 74° East  Level FlightAware Approximate
02:34 47.2831 -44.0721 74° East  Level FlightAware Approximate
02:35 47.3234 -43.8659 74° East  Level FlightAware Approximate
02:36 47.3633 -43.6594 74° East  Level FlightAware Approximate
02:37 47.4028 -43.4526 74° East  Level FlightAware Approximate
02:38 47.4419 -43.2455 74° East  Level FlightAware Approximate
02:39 47.4807 -43.0381 74° East  Level FlightAware Approximate
02:40 47.5191 -42.8304 75° East  Level FlightAware Approximate
02:41 47.5572 -42.6224 75° East  Level FlightAware Approximate
02:42 47.5948 -42.4141 75° East  Level FlightAware Approximate
02:43 47.6321 -42.2054 75° East  Level FlightAware Approximate
02:44 47.6690 -41.9965 75° East  Level FlightAware Approximate
02:45 47.7055 -41.7873 75° East  Level FlightAware Approximate
02:46 47.7416 -41.5778 76° East  Level FlightAware Approximate
02:47 47.7774 -41.3680 76° East  Level FlightAware Approximate
02:48 47.8127 -41.1580 76° East  Level FlightAware Approximate
02:49 47.8477 -40.9476 76° East  Level FlightAware Approximate
02:50 47.8823 -40.7370 76° East  Level FlightAware Approximate
02:51 47.9165 -40.5260 76° East  Level FlightAware Approximate
02:52 47.9504 -40.3148 76° East  Level FlightAware Approximate
02:52 48.0000 -40.0000 78° East 535 616 33,000  Level ETMS Enhanced Traffic Management System
02:53 47.9838 -40.1034 77° East  Level FlightAware Approximate
02:54 48.0158 -39.8911 78° East  Level FlightAware Approximate
02:55 48.0465 -39.6784 78° East  Level FlightAware Approximate
02:56 48.0757 -39.4727 78° East  Level FlightAware Approximate
02:57 48.1045 -39.2667 78° East  Level FlightAware Approximate
02:58 48.2120 -38.4727 79° East 535 616 33,000  Level FlightAware Transoceanic
02:59 48.2406 -38.2535 79° East 535 616 33,000  Level FlightAware Transoceanic
03:00 48.2688 -38.0341 79° East 535 616 33,000  Level FlightAware Transoceanic
03:01 48.2966 -37.8144 79° East 535 616 33,000  Level FlightAware Transoceanic
03:02 48.3240 -37.5945 79° East 535 616 33,000  Level FlightAware Transoceanic
03:03 48.3509 -37.3744 80° East 535 616 33,000  Level FlightAware Transoceanic
03:04 48.3774 -37.1540 80° East 535 616 33,000  Level FlightAware Transoceanic
03:05 48.4036 -36.9334 80° East 535 616 33,000  Level FlightAware Transoceanic
03:06 48.4292 -36.7125 80° East 535 616 33,000  Level FlightAware Transoceanic
03:07 48.4545 -36.4915 80° East 535 616 33,000  Level FlightAware Transoceanic
03:08 48.4794 -36.2702 80° East 535 616 33,000  Level FlightAware Transoceanic
03:09 48.5038 -36.0487 81° East 535 616 33,000  Level FlightAware Transoceanic
03:10 48.5278 -35.8270 81° East 535 616 33,000  Level FlightAware Transoceanic
03:11 48.5513 -35.6051 81° East 535 616 33,000  Level FlightAware Transoceanic
03:12 48.5745 -35.3830 81° East 535 616 33,000  Level FlightAware Transoceanic
03:13 48.5972 -35.1607 81° East 535 616 33,000  Level FlightAware Transoceanic
03:14 48.6195 -34.9382 81° East 535 616 33,000  Level FlightAware Transoceanic
03:15 48.6413 -34.7155 82° East 535 616 33,000  Level FlightAware Transoceanic
03:16 48.6627 -34.4926 82° East 535 616 33,000  Level FlightAware Transoceanic
03:17 48.6837 -34.2695 82° East 535 616 33,000  Level FlightAware Transoceanic
03:18 48.7043 -34.0462 82° East 535 616 33,000  Level FlightAware Transoceanic
03:19 48.7244 -33.8228 82° East 535 616 33,000  Level FlightAware Transoceanic
03:20 48.7441 -33.5991 82° East 535 616 33,000  Level FlightAware Transoceanic
03:21 48.7634 -33.3753 83° East 535 616 33,000  Level FlightAware Transoceanic
03:22 48.7822 -33.1513 83° East 535 616 33,000  Level FlightAware Transoceanic
03:23 48.8006 -32.9272 83° East 535 616 33,000  Level FlightAware Transoceanic
03:24 48.8186 -32.7029 83° East 535 616 33,000  Level FlightAware Transoceanic
03:25 48.8361 -32.4785 83° East 535 616 33,000  Level FlightAware Transoceanic
03:26 48.8532 -32.2538 83° East 535 616 33,000  Level FlightAware Transoceanic
03:27 48.8699 -32.0291 84° East 535 616 33,000  Level FlightAware Transoceanic
03:28 48.8861 -31.8042 84° East 535 616 33,000  Level FlightAware Transoceanic
03:29 48.9018 -31.5791 84° East 535 616 33,000  Level FlightAware Transoceanic
03:30 48.9172 -31.3539 84° East 535 616 33,000  Level FlightAware Transoceanic
03:31 48.9321 -31.1286 84° East 535 616 33,000  Level FlightAware Transoceanic
03:32 48.9465 -30.9031 85° East 535 616 33,000  Level FlightAware Transoceanic
03:33 48.9606 -30.6775 85° East 535 616 33,000  Level FlightAware Transoceanic
03:34 48.9742 -30.4518 85° East 535 616 33,000  Level FlightAware Transoceanic
03:35 48.9873 -30.2260 85° East 535 616 33,000  Level FlightAware Transoceanic
03:36 48.9993 -30.0125 85° East  Level FlightAware Approximate
03:37 49.0109 -29.7989 85° East  Level FlightAware Approximate
03:38 49.0268 -29.8151 77° East  Level FlightAware Approximate
03:39 49.0568 -29.6056 78° East  Level FlightAware Approximate
03:40 49.0864 -29.3958 78° East  Level FlightAware Approximate
03:40 49.0000 -30.0000 77° East 502 578 33,000  Level ETMS Enhanced Traffic Management System
03:41 49.1157 -29.1857 78° East  Level FlightAware Approximate
03:42 49.1446 -28.9751 78° East  Level FlightAware Approximate
03:43 49.1731 -28.7642 78° East  Level FlightAware Approximate
03:44 49.2012 -28.5531 78° East  Level FlightAware Approximate
03:45 49.2290 -28.3417 79° East  Level FlightAware Approximate
03:46 49.2563 -28.1301 79° East  Level FlightAware Approximate
03:47 49.2845 -27.9092 79° East 502 578 33,000  Level FlightAware Transoceanic
03:48 49.3108 -27.6988 79° East 502 578 33,000  Level FlightAware Transoceanic
03:49 49.3368 -27.4882 79° East 502 578 33,000  Level FlightAware Transoceanic
03:50 49.3624 -27.2774 80° East 502 578 33,000  Level FlightAware Transoceanic
03:51 49.3876 -27.0664 80° East 502 578 33,000  Level FlightAware Transoceanic
03:52 49.4124 -26.8551 80° East 502 578 33,000  Level FlightAware Transoceanic
03:53 49.4369 -26.6437 80° East 502 578 33,000  Level FlightAware Transoceanic
03:54 49.4609 -26.4320 80° East 502 578 33,000  Level FlightAware Transoceanic
03:55 49.4846 -26.2201 80° East 502 578 33,000  Level FlightAware Transoceanic
03:56 49.5079 -26.0080 80° East 502 578 33,000  Level FlightAware Transoceanic
03:57 49.5308 -25.7957 81° East 502 578 33,000  Level FlightAware Transoceanic
03:58 49.5533 -25.5833 81° East 502 578 33,000  Level FlightAware Transoceanic
03:59 49.5754 -25.3706 81° East 502 578 33,000  Level FlightAware Transoceanic
04:00 49.5971 -25.1577 81° East 502 578 33,000  Level FlightAware Transoceanic
04:01 49.6185 -24.9447 81° East 502 578 33,000  Level FlightAware Transoceanic
04:02 49.6394 -24.7314 81° East 502 578 33,000  Level FlightAware Transoceanic
04:03 49.6600 -24.5180 82° East 502 578 33,000  Level FlightAware Transoceanic
04:04 49.6801 -24.3044 82° East 502 578 33,000  Level FlightAware Transoceanic
04:05 49.6999 -24.0907 82° East 502 578 33,000  Level FlightAware Transoceanic
04:06 49.7192 -23.8767 82° East 502 578 33,000  Level FlightAware Transoceanic
04:07 49.7382 -23.6626 82° East 502 578 33,000  Level FlightAware Transoceanic
04:08 49.7568 -23.4483 82° East 502 578 33,000  Level FlightAware Transoceanic
04:09 49.7750 -23.2339 83° East 502 578 33,000  Level FlightAware Transoceanic
04:10 49.7928 -23.0193 83° East 502 578 33,000  Level FlightAware Transoceanic
04:11 49.8102 -22.8045 83° East 502 578 33,000  Level FlightAware Transoceanic
04:12 49.8272 -22.5896 83° East 502 578 33,000  Level FlightAware Transoceanic
04:13 49.8438 -22.3745 83° East 502 578 33,000  Level FlightAware Transoceanic
04:14 49.8600 -22.1593 83° East 502 578 33,000  Level FlightAware Transoceanic
04:15 49.8758 -21.9440 84° East 502 578 33,000  Level FlightAware Transoceanic
04:16 49.8912 -21.7285 84° East 502 578 33,000  Level FlightAware Transoceanic
04:17 49.9062 -21.5129 84° East 502 578 33,000  Level FlightAware Transoceanic
04:18 49.9208 -21.2971 84° East 502 578 33,000  Level FlightAware Transoceanic
04:19 49.9350 -21.0812 84° East 502 578 33,000  Level FlightAware Transoceanic
04:20 49.9488 -20.8652 84° East 502 578 33,000  Level FlightAware Transoceanic
04:21 49.9622 -20.6491 85° East 502 578 33,000  Level FlightAware Transoceanic
04:22 49.9752 -20.4328 85° East 502 578 33,000  Level FlightAware Transoceanic
04:23 49.9878 -20.2165 85° East 502 578 33,000  Level FlightAware Transoceanic
04:24 50.0004 -19.9933 85° East  Level FlightAware Approximate
04:25 49.9996 -19.9865 93° East  Level FlightAware Approximate
04:26 49.9924 -19.7627 93° East  Level FlightAware Approximate
04:27 49.9849 -19.5390 93° East  Level FlightAware Approximate
04:28 49.9768 -19.3154 93° East  Level FlightAware Approximate
04:29 49.9684 -19.0918 93° East  Level FlightAware Approximate
04:30 49.9595 -18.8683 93° East  Level FlightAware Approximate
04:31 49.9502 -18.6449 94° East  Level FlightAware Approximate
04:32 49.9405 -18.4216 94° East  Level FlightAware Approximate
04:33 49.9303 -18.1984 94° East  Level FlightAware Approximate
04:34 49.9198 -17.9753 94° East  Level FlightAware Approximate
04:35 49.9087 -17.7523 94° East  Level FlightAware Approximate
04:36 49.8973 -17.5293 94° East  Level FlightAware Approximate
04:37 49.8854 -17.3065 95° East  Level FlightAware Approximate
04:38 49.8731 -17.0838 95° East  Level FlightAware Approximate
04:39 49.8604 -16.8612 95° East  Level FlightAware Approximate
04:40 49.8473 -16.6388 95° East  Level FlightAware Approximate
04:41 49.8337 -16.4164 95° East  Level FlightAware Approximate
04:42 49.8197 -16.1942 95° East  Level FlightAware Approximate
04:43 49.8053 -15.9721 96° East  Level FlightAware Approximate
04:44 49.7905 -15.7502 96° East  Level FlightAware Approximate
04:45 49.7752 -15.5283 96° East  Level FlightAware Approximate
04:46 49.7595 -15.3067 96° East  Level FlightAware Approximate
04:47 49.7434 -15.0851 96° East  Level FlightAware Approximate
04:48 49.7268 -14.8638 97° East  Level FlightAware Approximate
04:49 49.7099 -14.6425 97° East  Level FlightAware Approximate
04:50 49.6925 -14.4215 97° East  Level FlightAware Approximate
04:51 49.6753 -14.2073 97° East  Level FlightAware Approximate
04:52 49.6576 -13.9932 97° East  Level FlightAware Approximate
04:53 49.6396 -13.7794 97° East  Level FlightAware Approximate
04:54 49.6211 -13.5656 98° East  Level FlightAware Approximate
04:55 49.6023 -13.3521 98° East  Level FlightAware Approximate
04:56 49.5831 -13.1387 98° East  Level FlightAware Approximate
04:57 49.5635 -12.9255 98° East  Level FlightAware Approximate
04:58 49.5435 -12.7124 98° East  Level FlightAware Approximate
04:59 49.5231 -12.4995 98° East  Level FlightAware Approximate
05:00 49.5013 -12.2871 99° East  Level FlightAware Approximate
05:01 49.4787 -12.0749 99° East  Level FlightAware Approximate
05:02 49.4557 -11.8630 99° East  Level FlightAware Approximate
05:03 49.4323 -11.6512 100° East  Level FlightAware Approximate
05:04 49.4086 -11.4397 100° East  Level FlightAware Approximate
05:05 49.3844 -11.2283 100° East  Level FlightAware Approximate
05:06 49.3599 -11.0172 100° East  Level FlightAware Approximate
05:07 49.3364 -10.8059 99° East  Level FlightAware Approximate
05:08 49.3136 -10.5945 99° East  Level FlightAware Approximate
05:09 49.2904 -10.3833 99° East  Level FlightAware Approximate
05:10 49.2668 -10.1723 100° East  Level FlightAware Approximate
05:11 49.2428 -9.9615 100° East  Level FlightAware Approximate
05:12 49.2184 -9.7509 100° East  Level FlightAware Approximate
05:13 49.1937 -9.5406 100° East  Level FlightAware Approximate
05:13 49.2800 -9.2780 100° East 520 598 33,000  Level FlightAware
05:13 49.2670 -9.1900 103° East 520 598 33,000  Level FlightAware
05:14 49.1686 -9.3304 100° East  Level FlightAware Approximate
05:14 49.2480 -9.0680 103° East 520 598 33,000  Level FlightAware
05:14 49.2269 -8.9551 103° East 490 564 31,500 -2,460 Descending FlightAware UK
05:15 49.2166 -8.8910 104° East 490 564 31,500 2,880 Level FlightAware UK
05:15 49.2250 -8.9150 104° East 520 598 33,000  Climbing FlightAware
05:15 49.1989 -8.7835 104° East 492 566 31,500 -2,580 Descending FlightAware UK
05:16 49.1881 -8.7191 104° East 490 564 31,500 3,900 Level FlightAware UK
05:16 49.1880 -8.7180 104° East 523 602 33,000  Climbing FlightAware
05:16 49.1739 -8.6331 104° East 490 564 31,500 -2,460 Descending FlightAware UK
05:16 49.1632 -8.5686 104° East 488 562 31,500 4,260 Level FlightAware UK
05:16 49.1640 -8.5740 104° East 523 602 33,000  Climbing FlightAware
05:17 49.1523 -8.5043 104° East 490 564 31,500 -2,760 Descending FlightAware UK
05:17 49.1414 -8.4399 105° East 488 562 31,500 3,000 Level FlightAware UK
05:17 49.1360 -8.4100 105° East 525 604 33,000  Climbing FlightAware
05:17 49.1230 -8.3326 105° East 490 564 31,500 -2,520 Descending FlightAware UK
05:18 49.1120 -8.2681 105° East 490 564 31,500 4,080 Level FlightAware UK
05:18 49.1120 -8.2660 105° East 526 605 33,000  Climbing FlightAware
05:18 49.0972 -8.1821 105° East 490 564 31,500  Descending FlightAware UK
05:18 49.0940 -8.1620 105° East 526 605 33,000  Climbing FlightAware
05:19 49.0789 -8.0744 105° East 490 564 31,500 -2,400 Descending FlightAware UK
05:19 49.0676 -8.0098 105° East 490 564 31,500 4,500 Level FlightAware UK
05:19 49.0680 -8.0120 105° East 527 606 33,000  Climbing FlightAware
05:19 49.0561 -7.9445 105° East 490 564 31,500 -2,700 Descending FlightAware UK
05:19 49.0448 -7.8799 105° East 490 564 31,500 3,060 Level FlightAware UK
05:20 49.0410 -7.8610 105° East 528 608 33,000  Climbing FlightAware
05:20 49.0257 -7.7722 105° East 488 562 31,500 -2,460 Descending FlightAware UK
05:20 49.0144 -7.7075 105° East 488 562 31,500 4,260 Level FlightAware UK
05:20 49.0140 -7.7030 105° East 528 608 33,000  Climbing FlightAware
05:21 49.0044 -7.6423 105° East 488 562 31,500 -2,760 Descending FlightAware UK
05:21 49.0016 -7.5752 94° East 490 564 31,500 3,600 Level FlightAware UK
05:21 49.0010 -7.5610 94° East 520 598 33,000  Climbing FlightAware
05:21 48.9980 -7.4882 94° East 488 562 31,500 -2,580 Descending FlightAware UK
05:22 48.9991 -7.4235 89° East 490 564 31,500 3,180 Level FlightAware UK
05:22 49.0010 -7.4050 89° East 514 592 33,000  Climbing FlightAware
05:22 49.0008 -7.3154 89° East 490 564 31,500 -2,400 Descending FlightAware UK
05:22 49.0013 -7.2504 89° East 492 566 31,500 4,500 Level FlightAware UK
05:22 49.0020 -7.2570 89° East 514 592 33,000  Climbing FlightAware
05:23 49.0018 -7.1854 89° East 496 571 31,500 -2,700 Descending FlightAware UK
05:23 49.0024 -7.1205 89° East 494 568 31,500 3,060 Level FlightAware UK
05:23 49.0030 -7.0910 89° East 511 588 33,000  Climbing FlightAware
05:23 49.0032 -7.0126 89° East 492 566 31,500  Descending FlightAware UK
05:24 49.0040 -6.9440 89° East 510 587 33,000  Climbing FlightAware
05:24 49.0038 -6.8827 89° East 492 566 31,500 -2,700 Descending FlightAware UK
05:24 49.0040 -6.8183 90° East 490 564 31,500 3,720 Level FlightAware UK
05:24 49.0040 -6.8080 90° East 510 587 33,000  Climbing FlightAware
05:25 49.0043 -6.7323 90° East 490 564 31,500  Descending FlightAware UK
05:25 49.0050 -6.6800 90° East 509 586 33,000  Climbing FlightAware
05:25 49.0045 -6.6679 90° East 490 564 31,500 -4,740 Descending FlightAware UK
05:25 49.0048 -6.6036 90° East 490 564 31,500  Level FlightAware UK
05:26 49.0051 -6.5392 90° East 488 562 31,500 2,880 Level FlightAware UK
05:26 49.0050 -6.5040 90° East 510 587 33,000  Climbing FlightAware
05:26 49.0052 -6.4319 90° East 490 564 31,500  Descending FlightAware UK
05:27 49.0050 -6.3790 90° East 510 587 33,000  Climbing FlightAware
05:27 49.0052 -6.2601 90° East 486 559 31,500  Descending FlightAware UK
05:27 49.0050 -6.2320 90° East 512 589 33,000  Climbing FlightAware
05:28 49.0050 -6.1094 90° East 488 562 31,500  Descending FlightAware UK
05:28 49.0050 -6.0480 90° East 514 592 33,000  Climbing FlightAware
05:28 48.9969 -5.9572 90° East 488 562 31,500  Descending FlightAware UK
05:29 48.9890 -5.9160 90° East 538 619 33,000  Climbing FlightAware
05:29 48.9636 -5.8275 90° East 488 562 31,500 -2,760 Descending FlightAware UK
05:29 48.9375 -5.7677 124° Southeast 488 562 31,500  Level FlightAware UK
05:30 48.9115 -5.7080 124° Southeast 488 562 31,500 4,080 Level FlightAware UK
05:30 48.9240 -5.7380 124° Southeast 563 648 33,000  Climbing FlightAware
05:30 48.8765 -5.6286 124° Southeast 488 562 31,500 -2,400 Descending FlightAware UK
05:30 48.8500 -5.5695 124° Southeast 488 562 31,500 4,500 Level FlightAware UK
05:30 48.8500 -5.5710 124° Southeast 568 654 33,000 1,860 Climbing FlightAware
05:31 48.7840 -5.4260 125° Southeast 571 657 33,000 -1,200 Level FlightAware
05:32 48.7332 -5.3134 125° Southeast 488 562 31,500  Descending FlightAware UK
05:32 48.7230 -5.2910 125° Southeast 573 659 33,000  Climbing FlightAware
05:32 48.6968 -5.2337 125° Southeast 488 562 31,500 -2,340 Descending FlightAware UK
05:32 48.6608 -5.1549 125° Southeast 488 562 31,500 3,600 Level FlightAware UK
05:32 48.6630 -5.1620 125° Southeast 575 662 33,000  Climbing FlightAware
05:33 48.6247 -5.0765 125° Southeast 490 564 31,500  Descending FlightAware UK
05:33 48.5940 -5.0100 125° Southeast 576 663 33,000  Climbing FlightAware
05:34 48.5429 -4.9005 125° Southeast 492 566 31,500  Descending FlightAware UK
05:34 48.5330 -4.8780 125° Southeast 576 663 33,000  Climbing FlightAware
05:34 48.4973 -4.8027 125° Southeast 492 566 31,500 -2,280 Descending FlightAware UK
05:34 48.4700 -4.7439 125° Southeast 492 566 31,500 3,900 Level FlightAware UK
05:35 48.4660 -4.7330 125° Southeast 575 662 33,000  Climbing FlightAware
05:35 48.4244 -4.6460 125° Southeast 492 566 31,500  Descending FlightAware UK
05:35 48.4030 -4.5960 125° Southeast 575 662 33,000  Climbing FlightAware
05:36 48.3416 -4.4694 125° Southeast 490 564 31,500  Descending FlightAware UK
05:36 48.3360 -4.4520 125° Southeast 575 662 33,000  Climbing FlightAware
05:36 48.2860 -4.3511 125° Southeast 492 566 31,500  Descending FlightAware UK
05:37 48.2740 -4.3220 125° Southeast 575 662 33,000 1,800 Climbing FlightAware
05:37 48.2140 -4.1950 125° Southeast 575 662 33,000  Level FlightAware
05:38 48.1430 -4.0460 125° Southeast 574 661 33,000  Level FlightAware
05:39 48.0810 -3.9130 125° Southeast 574 661 33,000  Level FlightAware
05:39 48.0190 -3.7870 126° Southeast 574 661 33,000  Level FlightAware
05:40 47.9500 -3.6430 126° Southeast 573 659 33,000  Level FlightAware
05:41 47.8890 -3.5180 126° Southeast 573 659 33,000  Level FlightAware
05:42 47.8170 -3.3710 126° Southeast 572 658 33,000  Level FlightAware
05:42 47.7550 -3.2410 125° Southeast 572 658 33,000  Level FlightAware
05:43 47.6920 -3.1140 126° Southeast 571 657 33,000  Level FlightAware
05:44 47.6240 -2.9750 126° Southeast 571 657 33,000  Level FlightAware
05:44 47.5630 -2.8550 127° Southeast 572 658 33,000  Level FlightAware
05:45 47.4990 -2.7260 126° Southeast 572 658 33,000  Level FlightAware
05:46 47.4260 -2.5790 126° Southeast 572 658 33,000  Level FlightAware
05:46 47.3580 -2.4440 127° Southeast 571 657 33,000  Level FlightAware
05:47 47.2930 -2.3160 127° Southeast 571 657 33,000  Level FlightAware
05:48 47.2300 -2.1920 127° Southeast 570 656 33,000  Level FlightAware
05:49 47.1580 -2.0530 127° Southeast 569 655 33,000  Level FlightAware
05:49 47.1020 -1.9420 127° Southeast 568 654 33,000  Level FlightAware
05:50 47.0250 -1.7920 127° Southeast 566 651 33,000  Level FlightAware
05:51 46.9670 -1.6820 128° Southeast 567 652 33,000  Level FlightAware
05:51 46.9050 -1.5630 127° Southeast 566 651 33,000  Level FlightAware
05:52 46.8420 -1.4410 127° Southeast 565 650 33,000  Level FlightAware
05:53 46.7700 -1.3050 128° Southeast 564 649 33,000  Level FlightAware
05:53 46.7080 -1.1850 127° Southeast 562 647 33,000  Level FlightAware
05:54 46.6460 -1.0680 128° Southeast 561 646 33,000  Level FlightAware
05:55 46.5750 -0.9370 128° Southeast 561 646 33,000  Level FlightAware
05:55 46.5120 -0.8180 128° Southeast 561 646 33,000  Level FlightAware
05:56 46.4480 -0.6950 127° Southeast 561 646 33,000  Level FlightAware
05:57 46.3950 -0.5930 127° Southeast 561 646 33,000  Level FlightAware
05:58 46.3390 -0.4100 114° Southeast 556 640 33,000  Level FlightAware
05:58 46.2900 -0.2740 117° Southeast 555 639 33,000  Level FlightAware
05:59 46.2380 -0.1280 117° Southeast 558 642 33,000  Level FlightAware
06:00 46.1940 0.0020 116° Southeast 556 640 33,000  Level FlightAware
06:00 46.1570 0.1600 109° East 556 640 33,000  Level FlightAware
06:01 46.1230 0.3090 108° East 557 641 33,000  Level FlightAware
06:02 46.0930 0.4440 108° East 558 642 33,000  Level FlightAware
06:02 46.0600 0.5980 107° East 558 642 33,000  Level FlightAware
06:03 46.0340 0.7190 107° East 558 642 33,000  Level FlightAware
06:04 46.0090 0.8400 107° East 558 642 33,000  Level FlightAware
06:04 45.9830 0.9610 107° East 558 642 33,000  Level FlightAware
06:05 45.9570 1.0820 107° East 558 642 33,000  Level FlightAware
06:06 45.9250 1.2330 107° East 558 642 33,000  Level FlightAware
06:07 45.9000 1.3530 107° East 558 642 33,000  Level FlightAware
06:07 45.8190 1.6330 112° Southeast 564 649 33,000  Level FlightAware
06:08 45.7780 1.8060 109° East 564 649 33,000  Level FlightAware
06:09 45.7440 1.9480 109° East 564 649 33,000  Level FlightAware
06:09 45.7100 2.0890 109° East 564 649 33,000  Level FlightAware
06:10 45.6720 2.2440 109° East 564 649 33,000  Level FlightAware
06:11 45.6250 2.4410 109° East 564 649 33,000  Level FlightAware
06:12 45.5890 2.5880 109° East 564 649 33,000  Level FlightAware
06:12 45.5570 2.7180 109° East 563 648 33,000  Level FlightAware
06:13 45.5230 2.8590 109° East 563 648 33,000  Level FlightAware
06:14 45.4940 2.9780 109° East 563 648 33,000  Level FlightAware
06:14 45.4660 3.0970 109° East 563 648 33,000  Level FlightAware
06:15 45.4370 3.2170 109° East 563 648 33,000  Level FlightAware
06:16 45.4010 3.3660 109° East 563 648 33,000  Level FlightAware
06:17 45.3700 3.6010 101° East 558 642 33,000  Level FlightAware
06:17 45.3470 3.7810 100° East 558 642 33,000  Level FlightAware
06:18 45.3290 3.9070 101° East 555 639 33,000  Level FlightAware
06:19 45.2420 4.1270 119° Southeast 553 636 33,000  Level FlightAware
06:21 45.0760 4.4140 129° Southeast 550 633 33,000  Level FlightAware
06:22 45.0160 4.5220 128° Southeast 549 632 33,000  Level FlightAware
06:22 44.9470 4.6530 127° Southeast 543 625 33,000  Level FlightAware
06:23 44.8820 4.7690 128° Southeast 544 626 33,000 540 Level FlightAware
06:24 44.8120 4.9000 127° Southeast 552 635 33,800 1,260 Climbing FlightAware
06:24 44.7530 5.0070 128° Southeast 548 631 34,800 900 Climbing FlightAware
06:25 44.6910 5.1210 127° Southeast 545 627 35,000 120 Climbing FlightAware
06:26 44.6270 5.2480 125° Southeast 542 624 35,000  Level FlightAware
06:26 44.5650 5.3690 126° Southeast 538 619 35,000  Level FlightAware
06:27 44.5050 5.4860 126° Southeast 543 625 35,000  Level FlightAware
06:28 44.4380 5.6140 126° Southeast 543 625 35,000  Level FlightAware
06:29 44.3790 5.7240 127° Southeast 543 625 35,000  Level FlightAware
06:29 44.3210 5.8370 126° Southeast 541 623 35,000  Level FlightAware
06:30 44.2610 5.9510 126° Southeast 539 620 35,000  Level FlightAware
06:31 44.1930 6.0970 123° Southeast 533 613 35,000  Level FlightAware
06:31 44.1430 6.2080 122° Southeast 526 605 35,000  Level FlightAware
06:32 44.0920 6.3210 122° Southeast 527 606 35,000  Level FlightAware
06:33 44.0320 6.4530 122° Southeast 533 613 35,000  Level FlightAware
06:33 43.9760 6.5740 123° Southeast 532 612 35,000  Level FlightAware
06:34 43.9310 6.6680 124° Southeast 529 609 35,000  Level FlightAware
06:37 43.8187 7.1206 109° East  Level Estimated
06:37 43.7350 7.0850 109° East 523 602 35,000  Level FlightAware
06:37 43.6790 7.2050 123° Southeast 521 600 35,000  Level FlightAware
06:38 43.6260 7.3190 123° Southeast 519 597 35,000  Level FlightAware
06:39 43.5730 7.4300 123° Southeast 516 594 35,000  Level FlightAware
06:39 43.5150 7.5540 123° Southeast 513 590 35,000  Level FlightAware
06:40 43.4600 7.6700 123° Southeast 508 585 35,000  Level FlightAware
06:41 43.4200 7.7530 124° Southeast 505 581 35,000  Level FlightAware
06:41 43.3450 7.9080 124° Southeast 500 575 35,000  Level FlightAware
06:42 43.3010 8.0010 123° Southeast 499 574 35,000  Level FlightAware
06:43 43.2430 8.1220 123° Southeast 497 572 35,000  Level FlightAware
06:44 43.1880 8.2350 124° Southeast 497 572 35,000  Level FlightAware
06:44 43.1380 8.3370 124° Southeast 497 572 35,000  Level FlightAware
06:45 43.0860 8.4450 123° Southeast 499 574 35,000  Level FlightAware
06:46 43.0300 8.5570 124° Southeast 501 577 35,000  Level FlightAware
06:46 42.9790 8.6630 123° Southeast 501 577 35,000  Level FlightAware
06:47 42.9230 8.7760 124° Southeast 502 578 35,000  Level FlightAware
06:48 42.8640 8.8970 124° Southeast 506 582 35,000  Level FlightAware
06:48 42.8120 8.9970 125° Southeast 511 588 35,000  Level FlightAware
06:49 42.7520 9.1210 123° Southeast 518 596 35,000  Level FlightAware
06:50 42.7140 9.2400 113° Southeast 520 598 35,000  Level FlightAware
06:51 42.6750 9.3710 112° Southeast 520 598 35,000  Level FlightAware
06:51 42.6350 9.4960 113° Southeast 513 590 35,000  Level FlightAware
06:52 42.6000 9.6090 113° Southeast 495 570 35,000  Level FlightAware
06:53 42.5600 9.7430 112° Southeast 489 563 35,000  Level FlightAware
06:53 42.5270 9.8540 112° Southeast 487 560 35,000  Level FlightAware
06:54 42.4890 9.9780 113° Southeast 488 562 35,000  Level FlightAware
06:55 42.4540 10.0910 113° Southeast 493 567 35,000  Level FlightAware
06:55 42.4190 10.2060 112° Southeast 497 572 35,000  Level FlightAware
06:56 42.3730 10.3380 115° Southeast 497 572 35,000  Level FlightAware
06:57 42.3230 10.4350 125° Southeast 498 573 35,000  Level FlightAware
06:58 42.2630 10.5530 124° Southeast 499 574 35,000  Level FlightAware
06:58 42.2090 10.6540 126° Southeast 500 575 35,000  Level FlightAware
06:59 42.1480 10.7640 127° Southeast 496 571 35,000  Level FlightAware
07:00 42.1000 10.8540 126° Southeast 494 568 35,000 300 Level FlightAware
07:00 42.0410 10.9630 126° Southeast 493 567 35,400 780 Climbing FlightAware
07:01 41.9800 11.0750 126° Southeast 496 571 36,200 1,020 Climbing FlightAware
07:02 41.9240 11.1760 127° Southeast 494 568 36,900 600 Climbing FlightAware
07:02 41.8700 11.2740 126° Southeast 495 570 37,000 60 Climbing FlightAware
07:03 41.8080 11.3860 127° Southeast 494 568 37,000  Level FlightAware
07:04 41.7530 11.4840 127° Southeast 492 566 37,000  Level FlightAware
07:04 41.6970 11.5850 127° Southeast 490 564 37,000  Level FlightAware
07:05 41.6370 11.6930 127° Southeast 488 562 37,000  Level FlightAware
07:06 41.5740 11.8020 128° Southeast 486 559 37,000  Level FlightAware
07:07 41.5200 11.9010 126° Southeast 485 558 37,000  Level FlightAware
07:07 41.4650 11.9950 128° Southeast 488 562 37,000  Level FlightAware
07:08 41.4080 12.1070 124° Southeast 489 563 37,000  Level FlightAware
07:09 41.3620 12.2110 120° Southeast 488 562 37,000  Level FlightAware
07:11 41.2021 12.4688 129° Southeast  Level FlightAware Approximate
07:12 41.1122 12.6128 130° Southeast  Level FlightAware Approximate
07:13 41.0221 12.7563 130° Southeast  Level FlightAware Approximate
07:14 40.9319 12.8995 130° Southeast  Level FlightAware Approximate
07:15 40.8722 13.0687 107° East  Level FlightAware Approximate
07:16 40.8301 13.2471 107° East  Level FlightAware Approximate
07:17 40.7877 13.4252 107° East  Level FlightAware Approximate
07:18 40.7451 13.6031 107° East  Level FlightAware Approximate
07:18 40.7060 13.6420 107° East 507 583 37,000  Level FlightAware
07:19 40.6480 13.7650 122° Southeast 506 582 37,000  Level FlightAware
07:19 40.5990 13.8700 122° Southeast 506 582 37,000  Level FlightAware
07:20 40.5440 13.9840 122° Southeast 508 585 37,000  Level FlightAware
07:21 40.4960 14.0910 121° Southeast 510 587 37,000  Level FlightAware
07:21 40.4540 14.2020 116° Southeast 513 590 37,000  Level FlightAware
07:22 40.4060 14.3280 117° Southeast 517 595 37,000  Level FlightAware
07:23 40.3630 14.4440 116° Southeast 520 598 37,000  Level FlightAware
07:23 40.3210 14.5580 116° Southeast 519 597 37,000  Level FlightAware
07:24 40.2740 14.6810 117° Southeast 516 594 37,000  Level FlightAware
07:25 40.2320 14.7930 116° Southeast 515 593 37,000  Level FlightAware
07:26 40.1830 14.9210 117° Southeast 517 595 37,000  Level FlightAware
07:26 40.1410 15.0310 117° Southeast 520 598 37,000  Level FlightAware
07:27 40.0970 15.1430 117° Southeast 522 601 37,000  Level FlightAware
07:28 40.0560 15.2500 117° Southeast 524 603 37,000  Level FlightAware
07:28 40.0050 15.3840 116° Southeast 526 605 37,000  Level FlightAware
07:29 39.9550 15.5110 117° Southeast 527 606 37,000  Level FlightAware
07:30 39.9180 15.6070 117° Southeast 528 608 37,000  Level FlightAware
07:30 39.8640 15.7460 117° Southeast 529 609 37,000  Level FlightAware
07:31 39.8180 15.8620 117° Southeast 527 606 37,000  Level FlightAware
07:32 39.7740 15.9740 117° Southeast 521 600 37,000  Level FlightAware
07:33 39.7240 16.1020 117° Southeast 519 597 37,000  Level FlightAware
07:33 39.6800 16.2130 117° Southeast 518 596 37,000  Level FlightAware
07:34 39.6340 16.3260 118° Southeast 521 600 37,000  Level FlightAware
07:35 39.5860 16.4450 118° Southeast 516 594 37,000  Level FlightAware
07:35 39.5470 16.5440 117° Southeast 511 588 37,000  Level FlightAware
07:36 39.5030 16.6550 117° Southeast 511 588 37,000  Level FlightAware
07:37 39.4490 16.7830 119° Southeast 525 604 37,000  Level FlightAware
07:37 39.4070 16.8900 117° Southeast 528 608 37,000  Level FlightAware
07:38 39.3560 17.0140 118° Southeast 521 600 37,000  Level FlightAware
07:39 39.3200 17.1020 118° Southeast 522 601 37,000  Level FlightAware
07:40 39.2740 17.2150 118° Southeast 522 601 37,000  Level FlightAware
07:40 39.2320 17.3160 118° Southeast 519 597 37,000  Level FlightAware
07:41 39.1700 17.4660 118° Southeast 517 595 37,000  Level FlightAware
07:42 39.1250 17.5740 118° Southeast 517 595 37,000  Level FlightAware
07:42 39.0780 17.6860 118° Southeast 519 597 37,000  Level FlightAware
07:43 39.0320 17.7950 118° Southeast 523 602 37,000  Level FlightAware
07:44 38.9870 17.9040 118° Southeast 524 603 37,000  Level FlightAware
07:44 38.9320 18.0360 118° Southeast 527 606 37,000  Level FlightAware
07:45 38.8850 18.1460 119° Southeast 526 605 37,000  Level FlightAware
07:46 38.8510 18.2260 119° Southeast 527 606 37,000  Level FlightAware
07:47 38.7560 18.4480 119° Southeast 527 606 37,000  Level FlightAware
07:47 38.7250 18.5220 118° Southeast 526 605 37,000  Level FlightAware
07:48 38.6700 18.6500 119° Southeast 526 605 37,000  Level FlightAware
07:49 38.6250 18.7530 119° Southeast 526 605 37,000  Level FlightAware
07:49 38.5770 18.8650 119° Southeast 525 604 37,000  Level FlightAware
07:50 38.5030 19.0500 117° Southeast 533 613 37,000  Level FlightAware
07:52 38.4410 19.2560 111° Southeast 533 613 37,000  Level FlightAware
07:52 38.4100 19.3600 111° Southeast 534 615 37,000  Level FlightAware
07:53 38.3660 19.5080 111° Southeast 534 615 37,000  Level FlightAware
07:54 38.3040 19.7150 111° Southeast 538 619 37,000  Level FlightAware
07:55 38.2410 19.9180 112° Southeast 539 620 37,000  Level FlightAware
07:57 38.1780 20.1280 111° Southeast 539 620 37,000  Level FlightAware
07:58 38.1150 20.3310 111° Southeast 538 619 37,000  Level FlightAware
07:59 38.0510 20.5360 112° Southeast 538 619 37,000  Level FlightAware
07:59 38.0180 20.6420 112° Southeast 538 619 37,000  Level FlightAware
08:00 37.9720 20.7890 112° Southeast 536 617 37,000  Level FlightAware
08:01 37.9130 20.9760 112° Southeast 535 616 37,000  Level FlightAware
08:02 37.8560 21.1570 112° Southeast 538 619 37,000  Level FlightAware
08:03 37.8190 21.2740 112° Southeast 537 618 37,000  Level FlightAware
08:04 37.7780 21.3990 113° Southeast 538 619 37,000  Level FlightAware
08:04 37.7410 21.5150 112° Southeast 537 618 37,000  Level FlightAware
08:05 37.7060 21.6230 112° Southeast 536 617 37,000  Level FlightAware
08:06 37.6600 21.7670 112° Southeast 536 617 37,000  Level FlightAware
08:07 37.6230 21.8770 113° Southeast 536 617 37,000  Level FlightAware
08:07 37.5810 22.0070 112° Southeast 536 617 37,000  Level FlightAware
08:08 37.5440 22.1200 112° Southeast 537 618 37,000  Level FlightAware
08:09 37.5040 22.2410 113° Southeast 538 619 37,000  Level FlightAware
08:09 37.4600 22.3740 113° Southeast 537 618 37,000  Level FlightAware
08:10 37.4220 22.4890 113° Southeast 536 617 37,000  Level FlightAware
08:11 37.3800 22.6120 113° Southeast 536 617 37,000  Level FlightAware
08:11 37.3420 22.7270 113° Southeast 539 620 37,000  Level FlightAware
08:12 37.3020 22.8450 113° Southeast 538 619 37,000  Level FlightAware
08:13 37.2600 22.9680 113° Southeast 535 616 37,000  Level FlightAware
08:14 37.2190 23.0910 113° Southeast 533 613 37,000  Level FlightAware
08:14 37.1760 23.2130 114° Southeast 533 613 37,000  Level FlightAware
08:15 37.1410 23.3180 113° Southeast 528 608 37,000  Level FlightAware
08:16 37.0980 23.4420 113° Southeast 533 613 37,000  Level FlightAware
08:16 37.0530 23.5720 113° Southeast 531 611 37,000  Level FlightAware
08:17 37.0150 23.6820 113° Southeast 530 610 37,000  Level FlightAware
08:18 36.9720 23.8050 114° Southeast 530 610 37,000  Level FlightAware
08:18 36.9320 23.9200 113° Southeast 529 609 37,000  Level FlightAware
08:19 36.8950 24.0270 113° Southeast 529 609 37,000  Level FlightAware
08:20 36.8490 24.1580 114° Southeast 529 609 37,000  Level FlightAware
08:21 36.8050 24.2810 114° Southeast 530 610 37,000  Level FlightAware
08:21 36.7650 24.3930 114° Southeast 529 609 37,000  Level FlightAware
08:22 36.7260 24.5040 114° Southeast 530 610 37,000  Level FlightAware
08:23 36.6790 24.6350 114° Southeast 525 604 37,000  Level FlightAware
08:23 36.6410 24.7420 114° Southeast 520 598 37,000  Level FlightAware
08:24 36.6010 24.8530 114° Southeast 516 594 37,000  Level FlightAware
08:25 36.5580 24.9690 115° Southeast 515 593 37,000  Level FlightAware
08:25 36.5190 25.0770 114° Southeast 515 593 37,000  Level FlightAware
08:27 36.4340 25.3100 114° Southeast 517 595 37,000  Level FlightAware
08:28 36.3790 25.4610 114° Southeast 519 597 37,000  Level FlightAware
08:29 36.3380 25.5690 115° Southeast 515 593 37,000  Level FlightAware
08:29 36.3030 25.6660 114° Southeast 516 594 37,000  Level FlightAware
08:30 36.2610 25.7800 115° Southeast 518 596 37,000 60 Level FlightAware
08:31 36.1980 25.9480 115° Southeast 520 598 37,200 540 Climbing FlightAware
08:31 36.1620 26.0460 114° Southeast 519 597 37,900 1,020 Climbing FlightAware
08:32 36.1160 26.1650 116° Southeast 522 601 38,600 660 Climbing FlightAware
08:33 36.0600 26.3150 115° Southeast 523 602 39,000 240 Climbing FlightAware
08:34 36.0130 26.4400 115° Southeast 521 600 39,000  Level FlightAware
08:34 35.9790 26.5300 115° Southeast 520 598 39,000  Level FlightAware
08:35 35.9430 26.6240 115° Southeast 522 601 39,000  Level FlightAware
08:36 35.8830 26.7770 116° Southeast 522 601 39,000  Level FlightAware
08:37 35.8400 26.8900 115° Southeast 522 601 39,000  Level FlightAware
08:37 35.8110 26.9680 115° Southeast 521 600 39,000  Level FlightAware
08:38 35.7660 27.0830 116° Southeast 519 597 39,000  Level FlightAware
08:39 35.7160 27.2100 116° Southeast 519 597 39,000  Level FlightAware
08:40 35.6510 27.3790 115° Southeast 520 598 39,000  Level FlightAware
08:40 35.6160 27.4700 115° Southeast 520 598 39,000  Level FlightAware
08:41 35.5820 27.5620 114° Southeast 520 598 39,000  Level FlightAware
08:42 35.5470 27.6530 115° Southeast 520 598 39,000  Level FlightAware
08:43 35.5040 27.7670 115° Southeast 520 598 39,000  Level FlightAware
08:43 35.4340 27.9310 118° Southeast 526 605 39,000  Level FlightAware
08:44 35.3770 28.0700 117° Southeast 529 609 39,000  Level FlightAware
08:45 35.3340 28.1770 116° Southeast 528 608 39,000  Level FlightAware
08:45 35.2910 28.2870 116° Southeast 527 606 39,000  Level FlightAware
08:46 35.2440 28.4020 117° Southeast 527 606 39,000  Level FlightAware
08:47 35.2010 28.5090 116° Southeast 527 606 39,000  Level FlightAware
08:47 35.1570 28.6160 117° Southeast 526 605 39,000  Level FlightAware
08:48 35.1070 28.7380 117° Southeast 524 603 39,000  Level FlightAware
08:49 35.0610 28.8510 116° Southeast 520 598 39,000  Level FlightAware
08:49 35.0240 28.9440 116° Southeast 519 597 39,000  Level FlightAware
08:50 34.9720 29.0680 117° Southeast 523 602 39,000  Level FlightAware
08:51 34.9240 29.1840 117° Southeast 523 602 39,000  Level FlightAware
08:52 34.8810 29.2890 117° Southeast 522 601 39,000  Level FlightAware
08:52 34.8420 29.3830 117° Southeast 521 600 39,000  Level FlightAware
08:53 34.7950 29.4960 117° Southeast 521 600 39,000  Level FlightAware
08:54 34.7450 29.6130 117° Southeast 517 595 39,000  Level FlightAware
08:54 34.7030 29.7150 117° Southeast 519 597 39,000  Level FlightAware
08:55 34.6600 29.8170 117° Southeast 520 598 39,000  Level FlightAware
08:56 34.6150 29.9290 116° Southeast 520 598 39,000  Level FlightAware
08:57 34.5550 30.0620 119° Southeast 524 603 39,000  Level FlightAware
08:58 34.4570 30.2610 121° Southeast 523 602 39,000  Level FlightAware
08:59 34.4050 30.3680 120° Southeast 525 604 39,000  Level FlightAware
08:59 34.3590 30.4630 120° Southeast 528 608 39,000  Level FlightAware
09:00 34.2960 30.5920 121° Southeast 532 612 39,000  Level FlightAware
09:01 34.2460 30.6960 120° Southeast 537 618 39,000  Level FlightAware
09:01 34.1940 30.8020 121° Southeast 537 618 39,000  Level FlightAware
09:02 34.1370 30.9200 120° Southeast 535 616 39,000  Level FlightAware
09:03 34.0860 31.0230 121° Southeast 535 616 39,000  Level FlightAware
09:04 34.0310 31.1360 120° Southeast 534 615 39,000  Level FlightAware
09:04 33.9800 31.2380 121° Southeast 533 613 39,000  Level FlightAware
09:05 33.9250 31.3470 121° Southeast 532 612 39,000  Level FlightAware
09:06 33.8720 31.4540 121° Southeast 532 612 39,000  Level FlightAware
09:06 33.8210 31.5550 121° Southeast 531 611 39,000  Level FlightAware
09:07 33.7700 31.6560 121° Southeast 530 610 39,000  Level FlightAware
09:08 33.7140 31.7700 121° Southeast 529 609 39,000  Level FlightAware
09:08 33.6580 31.8830 121° Southeast 529 609 39,000  Level FlightAware
09:09 33.6090 31.9780 122° Southeast 530 610 39,000  Level FlightAware
09:10 33.5580 32.0780 121° Southeast 529 609 39,000  Level FlightAware
09:10 33.5080 32.1760 121° Southeast 529 609 39,000  Level FlightAware
09:11 33.4480 32.2930 122° Southeast 529 609 39,000  Level FlightAware
09:12 33.3920 32.4030 121° Southeast 528 608 39,000 -420 Level FlightAware
09:13 33.3480 32.4880 122° Southeast 531 611 38,500 -2,040 Descending FlightAware
09:13 33.2900 32.6010 122° Southeast 529 609 36,300 -2,400 Descending FlightAware
09:14 33.2340 32.7110 121° Southeast 522 601 34,900 -1,980 Descending FlightAware
09:15 33.1830 32.8100 122° Southeast 509 586 33,500 -2,220 Descending FlightAware
09:15 33.1230 32.9250 122° Southeast 495 570 31,800 -1,920 Descending FlightAware
09:16 33.0830 33.0030 121° Southeast 478 550 30,800 -1,800 Descending FlightAware
09:17 33.0310 33.1060 121° Southeast 467 537 29,400 -2,220 Descending FlightAware
09:18 32.9810 33.2040 121° Southeast 457 526 27,700 -2,400 Descending FlightAware
09:18 32.9370 33.2910 121° Southeast 450 518 26,000 -2,700 Descending FlightAware
09:19 32.8890 33.3840 122° Southeast 449 517 23,900 -2,580 Descending FlightAware
09:20 32.8460 33.4670 122° Southeast 438 504 22,400 -2,220 Descending FlightAware
09:20 32.8040 33.5480 122° Southeast 423 487 21,000 -1,980 Descending FlightAware
09:21 32.7640 33.6260 121° Southeast 408 470 19,800 -1,860 Descending FlightAware
09:22 32.7190 33.7120 122° Southeast 393 452 18,400 -1,800 Descending FlightAware
09:22 32.6820 33.7830 122° Southeast 383 441 17,300 -1,740 Descending FlightAware
09:23 32.6410 33.8610 122° Southeast 373 429 16,000 -1,740 Descending FlightAware
09:24 32.6050 33.9310 121° Southeast 366 421 14,900 -1,740 Descending FlightAware
09:25 32.5640 34.0090 122° Southeast 359 413 13,600 -1,680 Descending FlightAware
09:25 32.5310 34.0730 121° Southeast 352 405 12,600 -1,500 Descending FlightAware
09:26 32.4960 34.1390 122° Southeast 344 396 11,600 -1,620 Descending FlightAware
09:27 32.4540 34.1980 130° Southeast 338 389 10,500 -1,020 Descending FlightAware
09:27 32.4080 34.2510 136° Southeast 306 352 10,200 -660 Descending FlightAware
09:28 32.3790 34.2850 135° Southeast 292 336 9,700 -1,200 Descending FlightAware
09:28 32.3530 34.3160 135° Southeast 291 335 9,100 -1,140 Descending FlightAware
09:29 32.3330 34.3390 136° Southeast 8,700 -960 Descending FlightAware
09:29 32.3090 34.3680 134° Southeast 284 327 8,300 -1,080 Descending FlightAware
09:29 32.2860 34.3940 136° Southeast 282 325 7,900 -600 Descending FlightAware
09:30 32.2510 34.4350 135° Southeast 282 325 7,700 -780 Descending FlightAware
09:30 32.2380 34.4510 134° Southeast 282 325 7,200 -1,500 Descending FlightAware
09:31 32.2160 34.4870 126° Southeast 279 321 6,700 -1,140 Descending FlightAware
09:31 32.2000 34.5180 121° Southeast 271 312 6,200 -1,080 Descending FlightAware
09:31 32.1920 34.5340 121° Southeast 270 311 6,000 -1,080 Descending FlightAware
09:32 32.1720 34.5730 121° Southeast 260 299 5,500 -1,080 Descending FlightAware
09:32 32.1690 34.5790 121° Southeast 259 298 5,400 -720 Descending FlightAware
09:33 32.1500 34.6150 122° Southeast 257 296 5,100 -300 Descending FlightAware
09:33 32.1290 34.6520 124° Southeast 258 297 5,100  Level FlightAware
09:34 32.1100 34.6860 123° Southeast 259 298 5,100  Level FlightAware
09:34 32.0920 34.7190 123° Southeast 245 282 5,100  Level FlightAware
09:35 32.0740 34.7530 122° Southeast 214 246 5,100  Level FlightAware
09:35 32.0600 34.7750 127° Southeast 194 223 5,100 -240 Level FlightAware
09:35 32.0420 34.7960 135° Southeast 192 221 4,900 -480 Descending FlightAware
09:36 32.0350 34.8050 133° Southeast 192 221 4,800 -300 Descending FlightAware
09:36 32.0150 34.8260 138° Southeast 192 221 4,700 -300 Descending FlightAware
09:36 32.0080 34.8340 136° Southeast 193 222 4,600 -960 Descending FlightAware
09:37 31.9880 34.8570 136° Southeast 182 209 4,000 -1,200 Descending FlightAware
09:37 31.9720 34.8830 126° Southeast 170 196 3,300 -1,140 Descending FlightAware
09:38 31.9780 34.9170 78° East 168 193 2,700 -600 Descending FlightAware
09:39 31.9850 34.9480 75° East 169 194 2,600 -600 Descending FlightAware
09:39 31.9910 34.9600 59° Northeast 160 184 2,200 -600 Descending FlightAware
09:39 32.0010 34.9760 54° Northeast 160 184 2,200  Level FlightAware
09:42 32.0095 34.8769 276° West  Level Estimated